DECAYED

STARLINK-11248, 60914 (Decayed)

Orbit data source: Space-Track

STARLINK-11248, 60914 was a payload satellite owned by SpaceX/Seattle (US) in LEO that was launched on Sat, 31 Aug 2024 UTC via an FALCON 9 launch vehicle from the Air Force Eastern Test Range (AFETR). Payload-class satellites include a variety of spacecraft equipped with specific instruments for various scientific and technological missions. These include communications satellites like Starlink; space stations such as the ISS; scientific satellites like the Hubble; Earth observation satellites from companies like Planet Labs, Umbra, and HawkEye 360; GPS; miniature CubeSats for education and research; and military/defense satellites.

Not visible in the next 10 days
Identifier
60914, 2024-154M
Orbit
Decayed
Country
Flag of USUS
Related business
Manufacturer
SpaceX/Seattle
Mission
Decayed Commercial Communications
Bus & Motor
STARLINK V2MD, Unknown motor
Mass
960 kg wet, ~910 kg dry
Launch date (UTC)
2024-08-31 (2 years ago)
Launch vehicle
FALCON 9
Launch site
Air Force Eastern Test Range (AFETR)
Object type
Payload
Rocket body
Debris
Shape & HBR
Box + 2 Pan, 18.1 m
Radar Cross Section
36.964 m², Large (>1 m²)

Expand to show TLE details & history
Last TLE update: 6 months ago

TLE from 6 months ago
0 STARLINK-11248
1 60914U 24154M   25364.11832593  .01553990  18522-2  13586-2 0  9995
2 60914  53.1338 106.2938 0008204 337.1397  22.9273 16.12858205 77682
Epoch: 2025-12-30T02:50Z
TLE epoch observation values (Epoch: 2025-12-30T02:50:23.360Z)
Latitude
Longitude
-35.10972°
Altitude
234.944 km
Speed
7.77 km/s
True Right ascension
07h 05m 10s
True Declination
0° 00' 00"
Sunlit
Object was in full shadow at epoch
Visualization orbit readout
Latitude
Unknown
Longitude
Unknown
Altitude
Unknown
Speed
Unknown
Apparent Right ascension
Unknown
Apparent Declination
Unknown
Sunlit
N/A
Visualization observer readout
Local Sidereal Time
19:50:16
Azimuth
Unknown
Elevation
Unknown
Doppler factor
Unknown
Orbital elements
Apogee altitude
244.713 km
Perigee altitude
233.855 km
Semi-major axis
6,617.421 km
Eccentricity
0.00082
Inclination
53.1338°
RAAN
106.2938°
Arg. of periapsis
337.1397°
True anomaly
22.96396°
Mean anomaly
22.9273°
Eccentric anomaly
22.94563°
Mean motion
4.0319 °/min
Orbital period
89.29 mins
BSTAR
0.0013586
Loading maneuver chart data...
Computing Atmospheric mass density...
Loading historical data...
Loading historical data...
Loading historical data...
Loading historical data...
Loading historical data...
Loading historical data...
Loading historical data...

Documentation

Showing up to 5 results
|